Regional Weather Roundup
Issued by NWS Raleigh/Durham, NC

Home | Current Version | Previous Version | Text Only | Print | Product List | Glossary On
Versions: 1 2 3 4 5 6 7 8 9 10 11 12 13 14 15 16 17 18 19 20 21 22 23 24 25 26 27 28 29 30 31 32 33 34 35 36 37 38 39 40 41 42 43 44 45 46 47 48 49 50
000
ASUS42 KRAH 011010
RWRRAH
NORTH CAROLINA WEATHER ROUNDUP
NATIONAL WEATHER SERVICE RALEIGH NC
500 AM EST SUN FEB 01 2015

NOTE: "FAIR" INDICATES FEW OR NO CLOUDS BELOW 12,000 FEET WITH NO
SIGNIFICANT WEATHER AND/OR OBSTRUCTIONS TO VISIBILITY.

NCZ001-053-055-056-065-067-011100-
WESTERN NORTH CAROLINA

CITY           SKY/WX    TMP DP  RH WIND       PRES   REMARKS
ASHEVILLE      CLOUDY    34  22  61 CALM      30.20R
JEFFERSON      NOT AVBL
MORGANTON      CLOUDY    37  25  64 N3        30.24S
HICKORY        CLOUDY    38  22  52 CALM      30.20F
RUTHERFORDTON  CLOUDY    38  23  55 CALM      30.23R
MOUNT AIRY     CLOUDY    35  21  55 CALM      30.22R
BOONE          CLOUDY    32  16  50 CALM      30.15F
$$

NCZ021-022-025-041-071-084-088-011100-
CENTRAL NORTH CAROLINA

CITY           SKY/WX    TMP DP  RH WIND       PRES   REMARKS
CHARLOTTE      CLOUDY    40  20  44 S3        30.25S
GREENSBORO     CLOUDY    37  19  48 SW6       30.20F WCI  32
WINSTON-SALEM  CLOUDY    38  15  39 CALM      30.23R
RALEIGH-DURHAM CLOUDY    36  17  46 CALM      30.26F
FORT BRAGG     CLOUDY    39  19  44 CALM      30.28S
FAYETTEVILLE   CLOUDY    38  23  55 S5        30.29R WCI  34
BURLINGTON     CLOUDY    32  18  56 E5        30.22F WCI  27
LAURINBURG     CLOUDY    37  26  64 S5        30.29S WCI  33
$$

NCZ011-015-027-028-043-044-047-080-103-011100-
NORTHEASTERN NORTH CAROLINA

CITY           SKY/WX    TMP DP  RH WIND       PRES   REMARKS
ROCKY MT-WILSO MOCLDY    35  21  56 S5        30.28S WCI  31
GREENVILLE     MOCLDY    34  21  60 SW3       30.29F
WASHINGTON     PTCLDY    33  21  60 CALM      30.30R
ELIZABETH CITY MOCLDY    31  22  69 SW5       30.28S WCI  26
MANTEO         CLEAR     34  28  80 SW5       30.29S WCI  30
CAPE HATTERAS  CLEAR     37  28  70 W7        30.30S WCI  32
$$

NCZ078-087-090-091-093-098-101-011100-
SOUTHEASTERN NORTH CAROLINA

CITY           SKY/WX    TMP DP  RH WIND       PRES   REMARKS
LUMBERTON      CLOUDY    38  28  67 S3        30.30S
GOLDSBORO      CLOUDY    38  25  61 CALM      30.27F
KINSTON        CLOUDY    32  26  77 S3        30.30S
KENANSVILLE    MOCLDY    34  25  69 CALM      30.31F
NEW BERN       PTCLDY    35  23  61 SW6       30.32S WCI  30
CHERRY POINT   PTCLDY    35  25  66 SW6       30.32S WCI  30
BEAUFORT       PTCLDY    37  31  78 CALM      30.32R
JACKSONVILLE   MOCLDY    36  26  67 W6        30.31S WCI  31
WILMINGTON     MOCLDY    36  30  79 CALM      30.32S
$$



USA.gov is the U.S. government's official web portal to all federal, state and local government web resources and services.